Погода в Лопатках

Россия / Курганская область     54°59′11″N   66°37′12″E
В апреле 2022 года жителям России запретили посещать сайт meteo.paraplan.net по решению Генеральной прокуратуры. Аудитория сайта уменьшилась в 10 раз. Владельцы сайта не видят смысла в поддержке погодного сервера в таких условиях. Сайт будет закрыт в октябре.
темп.,
°C
ветер,
м/с
пор.,
м/с
влажн.,
%
обл.,
%
осадки,
мм/ч
давл.,
гПа
погр.,
м
3 октября, пн
пн323:00+2ю475064 0.0 1033152
02:00+2ю375193 0.0 1033162
05:00+2ю375079 0.0 1033160
08:00+2ю375191 0.0 1033207
11:00+7ю463983 0.0 1033489
14:00+10ю55325 0.0 1032801
17:00+9ю353920 0.0 1031146
20:00+6ю3545100 0.0 103271
4 октября, вт
вт423:00+4ююз474739 0.0 1033111
02:00+4ююз474879 0.0 1033113
05:00+3юз4849100 0.0 1033117
08:00+4юз4948100 0.0 1034176
11:00+8юз583999 0.0 1034297
14:00+8юз484242 0.0 1034279
17:00+11юз48425 0.0 1034191
20:00+8зюз46495 0.0 103589
5 октября, ср
ср523:00+7зюз46505 0.0 103576
02:00+6зюз46495 0.0 103574
05:00+6зюз47475 0.0 1036106
08:00+6юз374585 0.0 1036127
11:00+12зюз5831100 0.0 1035455
14:00+14юз5826100 0.0 1034681
17:00+12юз3735100 0.0 1033143
20:00+9юз4739100 0.0 103295
6 октября, чт
чт623:00+8юз364199 0.0 103290
02:00+6юз4743100 0.0 1031108
05:00+6юз3743100 0.0 1031139
08:00+7юз3742100 0.0 1030141
11:00+11юз4631100 0.0 1029349
14:00+14ююз4524100 0.0 1027639
17:00+13ю3632100 0.0 102599
20:00+10ю4835100 0.0 1025134
7 октября, пт
пт723:00+9ю4935100 0.0 1023148
02:00+9ю41034100 0.0 1021176
05:00+9ю41133100 0.0 1019190
08:00+9ю51132100 0.0 1018209
11:00+13ююз51126100 0.0 1016454
14:00+15юз61121100 0.0 10141164
17:00+13ююз61138100 0.0 1012585
20:00+11ююз5115690 0.0 1011335